カタログに戻る

KUIPER-00528

運用中通信LEO
NORAD 69603·PAYLOAD·🇺🇸 United States

打ち上げ Jun 17, 2026 から Guiana Space Centre

Loading…

次のパス (今後24時間)

TLE

最新Source: CelesTrak SupGP

元期: Sep 14, 2026, 17:42 UTC

1 69603C 26140M   26257.73797454  .00007970  00000+0  10434-2 0  2578
2 69603  51.9036 342.1917 0000430  87.4089  75.1126 14.79916336    12

AllMySatでKUIPER-00528をリアルタイム追跡

Download on the App Store